Home   Weather   Springfield   Past weeks

Flag for USA Past Weather in Springfield, Missouri, USA — Yesterday and Last 2 Weeks

Now
61 °F

Clear.


Feels Like: 61 °F
Forecast: 59 / 67 °F
Wind: 20 mph from Southeast

Location: Springfield Regional Airport

Current Time: Feb 20, 2017 at 5:47:40 am

Latest Report: Feb 20, 2017 at 4:52 am


Visibility: 10 mi

Pressure: 29.87 "Hg

Humidity: 81%

Dew Point: 55 °F

Location of SpringfieldLocation

Past Weather in Springfield — Graph

°F

Springfield Temperature Yesterday

Maximum temperature yesterday: 75 °F (at 3:52 pm)
Minimum temperature yesterday: 42 °F (at 6:21 am)
Average temperature yesterday: 59 °F

High & Low Weather Summary for the Past Weeks

 TemperatureHumidityPressure
High82 °F (Feb 11, 3:52 pm)97% (Feb 6, 10:52 am)30.47 "Hg (Feb 6, 10:52 am)
Low16 °F (Feb 9, 6:52 am)22% (Feb 13, 2:52 pm)29.46 "Hg (Feb 7, 2:52 am)
Average49 °F63%29.96 "Hg
* Reported Feb 5 3:52 am — Feb 20 3:52 am, Springfield, Weather by CustomWeather, © 2017

Note: Actual official high and low records may vary slightly from our data, if they occured in-between our weather recording intervals... More about our weather records

Advertising

Springfield Weather History for the Previous 24 Hours

Scroll right to see more
 ConditionsComfort  
Time TempWeatherWind HumidityBarometerVisibility
3:52 am
Mon, Feb 20
61 °FOvercast.21 mph83%29.89 "Hg10 mi
2:52 am60 °FClear.15 mph83%29.92 "Hg10 mi
1:52 am60 °FPassing clouds.18 mph86%29.93 "Hg10 mi
12:52 am60 °FClear.17 mph86%29.94 "Hg10 mi
11:52 pm
Sun, Feb 19
61 °FClear.18 mph83%29.94 "Hg10 mi
10:52 pm62 °FClear.16 mph80%29.95 "Hg10 mi
9:52 pm62 °FClear.16 mph78%29.96 "Hg10 mi
8:52 pm63 °FClear.16 mph78%29.96 "Hg10 mi
7:52 pm65 °FClear.15 mph73%29.96 "Hg10 mi
6:52 pm67 °FClear.15 mph68%29.95 "Hg10 mi
5:52 pm69 °FSunny.10 mph63%29.93 "Hg10 mi
4:52 pm74 °FSunny.13 mph53%29.92 "Hg10 mi
3:52 pm75 °FPassing clouds.14 mph52%29.92 "Hg10 mi
2:52 pm73 °FSunny.13 mph55%29.94 "Hg10 mi
1:52 pm71 °FSunny.13 mph59%29.94 "Hg10 mi
12:52 pm71 °FSunny.14 mph55%29.96 "Hg10 mi
11:52 am69 °FSunny.12 mph59%30.00 "Hg10 mi
10:52 am65 °FSunny.13 mph66%30.01 "Hg10 mi
9:52 am61 °FSunny.10 mph72%30.02 "Hg10 mi
8:52 am55 °FSunny.9 mph87%30.01 "Hg10 mi
7:52 am49 °FFog.9 mph93%30.01 "Hg4 mi
6:52 am47 °FFog.8 mph93%29.98 "Hg6 mi
6:31 am44 °FFog.9 mph96%29.98 "Hg4 mi
6:21 am42 °FFog.8 mph96%29.98 "Hg2 mi
5:52 am45 °FFog.7 mph93%29.98 "Hg4 mi
Weather by CustomWeather, © 2017

See weather overviewHow to use our weather pages